Weather History for Warsaw, IN

Change the Weather History Date:

Thursday, August 29, 2013

  Actual Average Record
Temperature  
Mean Temperature 74 °F -  
Max Temperature 86 °F 81 °F 97 °F (1953)
Min Temperature 62 °F 57 °F 37 °F (1986)
Cooling Degree Days 9    
Growing Degree Days 24 (Base 50)    
Moisture  
Dew Point 67 °F    
Average Humidity 82    
Maximum Humidity 100    
Minimum Humidity 51    
Precipitation  
Precipitation 0.00 in - - ()
Sea Level Pressure  
Sea Level Pressure 30.06 in    
Wind  
Wind Speed 1 mph (East)    
Max Wind Speed 6 mph    
Max Gust Speed -    
Visibility 7 miles    
Events Fog    
Averages and records for this station are not official NWS values.
T = Trace of Precipitation, MM = Missing Value Source: NWS Daily Summary

Daily Weather History Graph

Daily Weather History Graph

Search for Another Location

Airport:

Trip Planner

Search our weather history database for the weather conditions in past years. The results will help you decide how hot, cold, wet, or windy it might be!

Date:

Astronomy

Aug. 29, 2013 Rise Set
Actual Time 7:06 AM EDT 8:20 PM EDT
Civil Twilight 6:38 AM EDT 8:49 PM EDT
Nautical Twilight 6:04 AM EDT 9:23 PM EDT
Astronomical Twilight 5:28 AM EDT 9:58 PM EDT
Moon 12:56 AM EDT (8/29) 3:50 PM EDT (8/29)
Length of Visible Light 14h 10m
Length of Day
13h 13m
Last Quarter, 38% of the Moon is Illuminated
Aug 29
Last Quarter
Sep 5
New
Sep 12
First Quarter
Sep 19
Full
Sep 26
Last Quarter

Hourly Weather History & Observations

Time (EDT) Temp. Heat Index Dew Point Humidity Pressure Visibility Wind Dir Wind Speed Gust Speed Precip Events Conditions
12:15 AM 71.6 °F - 69.8 °F 94% 30.04 in 10.0 mi North 3.5 mph - N/A   Overcast
12:35 AM 71.6 °F - 69.8 °F 94% 30.04 in 10.0 mi NNE 3.5 mph - N/A   Mostly Cloudy
12:55 AM 69.8 °F - 68.0 °F 94% 30.04 in 10.0 mi Calm Calm - N/A   Scattered Clouds
1:15 AM 69.8 °F - 68.0 °F 94% 30.04 in 10.0 mi Calm Calm - N/A   Scattered Clouds
1:35 AM 69.8 °F - 68.0 °F 94% 30.04 in 7.0 mi Calm Calm - N/A   Scattered Clouds
1:55 AM 68.0 °F - 68.0 °F 100% 30.04 in 4.0 mi Calm Calm - N/A   Clear
2:15 AM 68.0 °F - 68.0 °F 100% 30.04 in 5.0 mi Calm Calm - N/A   Clear
2:35 AM 68.0 °F - 68.0 °F 100% 30.04 in 2.5 mi Calm Calm - N/A   Scattered Clouds
2:55 AM 68.0 °F - 68.0 °F 100% 30.04 in 4.0 mi Calm Calm - N/A   Scattered Clouds
3:15 AM 68.0 °F - 68.0 °F 100% 30.04 in 3.0 mi Calm Calm - N/A   Scattered Clouds
3:35 AM 66.2 °F - 66.2 °F 100% 30.05 in 3.0 mi Calm Calm - N/A   Clear
3:55 AM 68.0 °F - 68.0 °F 100% 30.05 in 2.0 mi Calm Calm - N/A   Clear
4:15 AM 68.0 °F - 66.2 °F 94% 30.04 in 1.8 mi Calm Calm - N/A   Mostly Cloudy
4:35 AM 66.2 °F - 66.2 °F 100% 30.05 in 1.2 mi Calm Calm - N/A   Scattered Clouds
4:55 AM 66.2 °F - 64.4 °F 94% 30.05 in 2.0 mi Calm Calm - N/A   Clear
5:15 AM 64.4 °F - 64.4 °F 100% 30.05 in 2.0 mi Calm Calm - N/A   Clear
5:35 AM 64.4 °F - 64.4 °F 100% 30.05 in 0.5 mi Calm Calm - N/A Fog Fog
5:55 AM 64.4 °F - 64.4 °F 100% 30.05 in 0.2 mi Calm Calm - N/A Fog Fog
6:15 AM 64.4 °F - 64.4 °F 100% 30.05 in 0.5 mi Calm Calm - N/A Fog Fog
6:35 AM 62.6 °F - 62.6 °F 100% 30.06 in 0.5 mi Calm Calm - N/A Fog Fog
6:55 AM 64.4 °F - 64.4 °F 100% 30.07 in 0.8 mi Calm Calm - N/A   Mostly Cloudy
7:15 AM 64.4 °F - 64.4 °F 100% 30.08 in 0.5 mi Calm Calm - N/A Fog Fog
7:35 AM 62.6 °F - 62.6 °F 100% 30.08 in 0.2 mi Calm Calm - N/A Fog Fog
7:55 AM 64.4 °F - 64.4 °F 100% 30.08 in 1.5 mi Calm Calm - N/A   Mostly Cloudy
8:15 AM 66.2 °F - 66.2 °F 100% 30.09 in 2.5 mi Calm Calm - N/A   Clear
8:35 AM 68.0 °F - 68.0 °F 100% 30.09 in 4.0 mi Calm Calm - N/A   Clear
8:55 AM 68.0 °F - 68.0 °F 100% 30.10 in 4.0 mi NE 3.5 mph - N/A   Clear
9:15 AM 69.8 °F - 68.0 °F 94% 30.10 in 5.0 mi Calm Calm - N/A   Clear
9:35 AM 71.6 °F - 68.0 °F 88% 30.10 in 7.0 mi East 3.5 mph - N/A   Clear
9:55 AM 73.4 °F - 68.0 °F 83% 30.10 in 7.0 mi East 3.5 mph - N/A   Clear
10:15 AM 73.4 °F - 69.8 °F 88% 30.10 in 7.0 mi Calm Calm - N/A   Clear
10:35 AM 77.0 °F - 69.8 °F 78% 30.10 in 7.0 mi East 3.5 mph - N/A   Mostly Cloudy
10:55 AM 77.0 °F - 69.8 °F 78% 30.10 in 7.0 mi ESE 3.5 mph - N/A   Mostly Cloudy
11:15 AM 77.0 °F - 69.8 °F 78% 30.10 in 7.0 mi Calm Calm - N/A   Mostly Cloudy
11:35 AM 78.8 °F - 69.8 °F 74% 30.10 in 7.0 mi ENE 5.8 mph - N/A   Scattered Clouds
11:55 AM 78.8 °F - 69.8 °F 74% 30.10 in 10.0 mi NE 4.6 mph - N/A   Scattered Clouds
12:15 PM 80.6 °F 83.9 °F 69.8 °F 70% 30.10 in 10.0 mi East 3.5 mph - N/A   Scattered Clouds
12:35 PM 80.6 °F 83.9 °F 69.8 °F 70% 30.10 in 10.0 mi ESE 4.6 mph - N/A   Scattered Clouds
1:15 PM 80.6 °F 83.2 °F 68.0 °F 65% 30.09 in 10.0 mi Calm Calm - N/A   Scattered Clouds
1:55 PM 82.4 °F 85.4 °F 68.0 °F 62% 30.08 in 10.0 mi Calm Calm - N/A   Mostly Cloudy
2:15 PM 86.0 °F 89.4 °F 68.0 °F 55% 30.08 in 10.0 mi ESE 5.8 mph - N/A   Mostly Cloudy
2:35 PM 82.4 °F 85.4 °F 68.0 °F 62% 30.08 in 10.0 mi East 5.8 mph - N/A   Mostly Cloudy
2:55 PM 82.4 °F 85.4 °F 68.0 °F 62% 30.07 in 10.0 mi NE 3.5 mph - N/A   Scattered Clouds
3:15 PM 82.4 °F 84.6 °F 66.2 °F 58% 30.07 in 10.0 mi ESE 5.8 mph - N/A   Clear
3:35 PM 82.4 °F 84.6 °F 66.2 °F 58% 30.07 in 10.0 mi East 3.5 mph - N/A   Scattered Clouds
3:55 PM 86.0 °F 88.2 °F 66.2 °F 51% 30.06 in 10.0 mi Calm Calm - N/A   Scattered Clouds
4:15 PM 84.2 °F 85.6 °F 64.4 °F 51% 30.05 in 10.0 mi Calm Calm - N/A   Clear
4:35 PM 84.2 °F 85.6 °F 64.4 °F 51% 30.04 in 10.0 mi Calm Calm - N/A   Clear
4:55 PM 84.2 °F 85.6 °F 64.4 °F 51% 30.04 in 10.0 mi Calm Calm - N/A   Clear
5:15 PM 86.0 °F 88.2 °F 66.2 °F 51% 30.04 in 10.0 mi East 3.5 mph - N/A   Clear
5:35 PM 86.0 °F 88.2 °F 66.2 °F 51% 30.04 in 10.0 mi East 4.6 mph - N/A   Clear
5:55 PM 82.4 °F 85.4 °F 68.0 °F 62% 30.04 in 10.0 mi East 3.5 mph - N/A   Clear
6:15 PM 82.4 °F 84.6 °F 66.2 °F 58% 30.03 in 10.0 mi ENE 3.5 mph - N/A   Clear
6:35 PM 86.0 °F 88.2 °F 66.2 °F 51% 30.03 in 10.0 mi Calm Calm - N/A   Clear
6:55 PM 84.2 °F 87.3 °F 68.0 °F 58% 30.03 in 10.0 mi East 3.5 mph - N/A   Clear
7:15 PM 82.4 °F 85.4 °F 68.0 °F 62% 30.03 in 10.0 mi Calm Calm - N/A   Clear
7:35 PM 80.6 °F 83.2 °F 68.0 °F 65% 30.03 in 10.0 mi Calm Calm - N/A   Clear
7:55 PM 78.8 °F - 69.8 °F 74% 30.03 in 10.0 mi Calm Calm - N/A   Clear
8:15 PM 77.0 °F - 69.8 °F 78% 30.03 in 10.0 mi Calm Calm - N/A   Clear
8:35 PM 73.4 °F - 69.8 °F 88% 30.03 in 10.0 mi Calm Calm - N/A   Clear
8:55 PM 73.4 °F - 69.8 °F 88% 30.04 in 10.0 mi Calm Calm - N/A   Clear
9:15 PM 73.4 °F - 68.0 °F 83% 30.04 in 10.0 mi Calm Calm - N/A   Clear
9:35 PM 71.6 °F - 69.8 °F 94% 30.04 in 7.0 mi Calm Calm - N/A   Clear
9:55 PM 71.6 °F - 68.0 °F 88% 30.05 in 10.0 mi Calm Calm - N/A   Clear
10:15 PM 71.6 °F - 68.0 °F 88% 30.05 in 10.0 mi Calm Calm - N/A   Clear
10:35 PM 69.8 °F - 68.0 °F 94% 30.04 in 10.0 mi Calm Calm - N/A   Clear
10:55 PM 71.6 °F - 68.0 °F 88% 30.04 in 10.0 mi Calm Calm - N/A   Clear
11:15 PM 69.8 °F - 68.0 °F 94% 30.03 in 10.0 mi Calm Calm - N/A   Clear
11:35 PM 69.8 °F - 68.0 °F 94% 30.03 in 7.0 mi Calm Calm - N/A   Clear
11:55 PM 69.8 °F - 68.0 °F 94% 30.02 in 7.0 mi Calm Calm - N/A   Clear